This is the latest recevied weather packets stored in our database for station/object KN4MGS. If no packets are shown the sender has not sent any weather packets the latest 10 day(s).
| Time | Temp. | Humidity | Pressure | Rain* | Wind** | Luminosity | Snow |
|---|---|---|---|---|---|---|---|
| 1777861178 | 10.56° C | 83% | 1020.8 hPa | 0 mm | - | 0 W/m² | - |
| 1777860875 | 10.56° C | 82% | 1020.4 hPa | 0 mm | - | 0 W/m² | - |
| 1777860572 | 10.56° C | 81% | 1020.4 hPa | 0 mm | - | 0 W/m² | - |
| 1777860269 | 10.56° C | 81% | 1020.2 hPa | 0 mm | - | 0 W/m² | - |
| 1777859966 | 11.11° C | 80% | 1020.3 hPa | 0 mm | - | 0 W/m² | - |
| 1777859661 | 10.56° C | 80% | 1020.4 hPa | 0 mm | - | 0 W/m² | - |
| 1777859358 | 11.11° C | 80% | 1020.3 hPa | 0 mm | - | 0 W/m² | - |
| 1777859054 | 11.11° C | 80% | 1020 hPa | 0 mm | - | 0 W/m² | - |
| 1777858751 | 11.11° C | 79% | 1019.7 hPa | 0 mm | - | 0 W/m² | - |
| 1777858449 | 11.67° C | 78% | 1020 hPa | 0 mm | - | 0 W/m² | - |
| 1777858145 | 11.67° C | 78% | 1019.9 hPa | 0 mm | - | 0 W/m² | - |
| 1777857843 | 11.67° C | 77% | 1020 hPa | 0 mm | - | 0 W/m² | - |
| 1777857540 | 11.67° C | 76% | 1019.9 hPa | 0 mm | - | 0 W/m² | - |
| 1777857237 | 12.22° C | 75% | 1020.2 hPa | 0 mm | - | 0 W/m² | - |
| 1777856933 | 12.22° C | 74% | 1019.6 hPa | 0 mm | - | 0 W/m² | - |
| 1777856629 | 12.22° C | 74% | 1019.9 hPa | 0 mm | - | 0 W/m² | - |
| 1777856325 | 12.78° C | 73% | 1020.1 hPa | 0 mm | - | 0 W/m² | - |
| 1777856022 | 12.78° C | 72% | 1019.5 hPa | 0 mm | - | 0 W/m² | - |
| 1777855720 | 13.33° C | 71% | 1019.5 hPa | 0 mm | - | 0 W/m² | - |
| 1777855417 | 13.89° C | 70% | 1019.5 hPa | 0 mm | - | 0 W/m² | - |
| 1777855113 | 13.89° C | 69% | 1019.5 hPa | 0 mm | - | 0 W/m² | - |
| 1777854810 | 13.89° C | 68% | 1019.5 hPa | 0 mm | - | 0 W/m² | - |
| 1777854507 | 14.44° C | 67% | 1019.4 hPa | 0 mm | - | 0 W/m² | - |
| 1777854204 | 15° C | 65% | 1019.5 hPa | 0 mm | - | 0 W/m² | - |
| 1777853902 | 15.56° C | 63% | 1019.3 hPa | 0 mm | - | 0 W/m² | - |
* Rain latest hour (hover to see other rain measurements)
** Current wind speed in m/s (hover to see current wind gust speed)